Change the Weather History Date:

Tuesday, November 6, 2012

  Actual Average (KDSM) Record (KDSM)
Temperature  
Mean Temperature 44 °F 44 °F  
Max Temperature 51 °F 53 °F 76 °F (1909)
Min Temperature 37 °F 35 °F 10 °F (1991)
Degree Days  
Heating Degree Days 21 21  
Month to date heating degree days 117  
Since 1 July heating degree days 601  
Cooling Degree Days 0 0  
Month to date cooling degree days 0  
Year to date cooling degree days 1066  
Moisture  
Dew Point 39 °F    
Average Humidity 79    
Maximum Humidity 100    
Minimum Humidity 53    
Precipitation  
Precipitation 0.00 in 0.08 in 0.74 in (2000)
Month to date precipitation 0.51  
Year to date precipitation 32.92  
Snow  
Snow 0.00 in 0.10 in 3.30 in (1991)
Month to date snowfall 0.2  
Since 1 July snowfall 0.6  
Since 1 September snowfall 0.6  
Snow Depth -    
Sea Level Pressure  
Sea Level Pressure 29.94 in    
Wind  
Wind Speed 10 mph (West)    
Max Wind Speed 18 mph    
Max Gust Speed 30 mph    
Visibility 8 miles    
Events Rain    
T = Trace of Precipitation, MM = Missing Value Source: NWS Daily Summary

Daily Weather History Graph

Daily Weather History Graph

Search for Another Location

Airport or City:

Trip Planner

Search our weather history database for the weather conditions in past years. The results will help you decide how hot, cold, wet, or windy it might be!

Date:

Astronomy

Nov. 06, 2012 Rise Set
Actual Time 6:53 AM CST 5:02 PM CST
Civil Twilight 6:23 AM CST 5:31 PM CST
Nautical Twilight 5:50 AM CST 6:04 PM CST
Astronomical Twilight 5:18 AM CST 6:37 PM CST
Moon 11:43 PM CST 12:44 PM CST
Length of Visible Light 11h 07m
Length of Day
10h 09m
Waning Gibbous, 53% of the Moon is Illuminated
Nov 6
Waning Gibbous
Nov 6
Last Quarter
Nov 13
New
Nov 20
First Quarter
Nov 28
Full

Hourly Weather History & Observations

Time (CST) Temp. Windchill Dew Point Humidity Pressure Visibility Wind Dir Wind Speed Gust Speed Precip Events Conditions
12:15 AM 42.8 °F 39.3 °F 42.8 °F 100% 30.04 in 7.0 mi South 5.8 mph - N/A   Overcast
12:35 AM 42.8 °F 38.6 °F 42.8 °F 100% 30.03 in 7.0 mi South 6.9 mph - N/A   Overcast
12:55 AM 42.8 °F 38.6 °F 42.8 °F 100% 30.04 in 7.0 mi SSW 6.9 mph - N/A   Overcast
1:15 AM 42.8 °F 39.3 °F 42.8 °F 100% 30.05 in 7.0 mi SW 5.8 mph - N/A   Overcast
1:35 AM 42.8 °F 39.3 °F 42.8 °F 100% 30.05 in 7.0 mi SW 5.8 mph - N/A   Overcast
1:55 AM 42.8 °F 38.6 °F 42.8 °F 100% 30.04 in 7.0 mi SSW 6.9 mph - N/A   Overcast
2:15 AM 42.8 °F 38.6 °F 42.8 °F 100% 30.03 in 7.0 mi South 6.9 mph - N/A   Overcast
2:35 AM 42.8 °F 39.3 °F 42.8 °F 100% 30.01 in 7.0 mi South 5.8 mph - N/A   Overcast
2:55 AM 42.8 °F 38.6 °F 42.8 °F 100% 30.00 in 7.0 mi South 6.9 mph - N/A   Overcast
3:15 AM 42.8 °F 38.0 °F 42.8 °F 100% 29.98 in 7.0 mi South 8.1 mph - N/A   Drizzle
3:35 AM 41.0 °F 35.8 °F 41.0 °F 100% 29.98 in 7.0 mi South 8.1 mph - N/A   Light Drizzle
3:55 AM 41.0 °F 35.8 °F 41.0 °F 100% 29.96 in 7.0 mi South 8.1 mph - N/A   Overcast
4:15 AM 41.0 °F 35.2 °F 41.0 °F 100% 29.95 in 7.0 mi South 9.2 mph - N/A   Overcast
4:35 AM 41.0 °F 35.8 °F 41.0 °F 100% 29.97 in 7.0 mi SW 8.1 mph - N/A   Overcast
4:55 AM 41.0 °F 35.2 °F 41.0 °F 100% 29.96 in 7.0 mi SSW 9.2 mph - N/A   Overcast
5:35 AM 41.0 °F 34.7 °F 41.0 °F 100% 29.93 in 5.0 mi South 10.4 mph - N/A   Light Drizzle
5:55 AM 41.0 °F 35.8 °F 41.0 °F 100% 29.91 in 5.0 mi SSW 8.1 mph - N/A   Overcast
6:15 AM 42.8 °F 37.0 °F 42.8 °F 100% 29.91 in 7.0 mi SSW 10.4 mph - N/A   Overcast
6:35 AM 37.4 °F 29.3 °F 37.4 °F 100% 29.91 in 4.0 mi SSW 12.7 mph 21.9 mph N/A Rain Heavy Rain
6:55 AM 41.0 °F 34.7 °F 41.0 °F 100% 29.92 in 7.0 mi SW 10.4 mph - N/A   Overcast
7:15 AM 41.0 °F 34.7 °F 41.0 °F 100% 29.92 in 5.0 mi SSW 10.4 mph 16.1 mph N/A   Overcast
7:35 AM 42.8 °F 37.0 °F 42.8 °F 100% 29.92 in 7.0 mi SSW 10.4 mph - N/A   Overcast
7:55 AM 39.2 °F 33.0 °F 39.2 °F 100% 29.92 in 5.0 mi SSW 9.2 mph - N/A   Overcast
8:15 AM 41.0 °F 35.8 °F 41.0 °F 100% 29.91 in 4.0 mi SW 8.1 mph - N/A   Light Drizzle
8:35 AM 42.8 °F 37.5 °F 42.8 °F 100% 29.91 in 3.0 mi SW 9.2 mph - N/A   Overcast
8:55 AM 42.8 °F 37.0 °F 42.8 °F 100% 29.91 in 2.0 mi WSW 10.4 mph - N/A   Light Drizzle
9:15 AM 42.8 °F 37.0 °F 42.8 °F 100% 29.90 in 2.5 mi WSW 10.4 mph - N/A   Overcast
9:35 AM 42.8 °F 36.6 °F 42.8 °F 100% 29.90 in 5.0 mi West 11.5 mph - N/A   Overcast
9:55 AM 42.8 °F 36.2 °F 42.8 °F 100% 29.90 in 7.0 mi WNW 12.7 mph 16.1 mph N/A   Overcast
10:15 AM 44.6 °F 37.4 °F 44.6 °F 100% 29.90 in 10.0 mi WNW 16.1 mph 21.9 mph N/A   Overcast
10:35 AM 46.4 °F 40.1 °F 46.4 °F 100% 29.90 in 10.0 mi WNW 15.0 mph 20.7 mph N/A   Scattered Clouds
10:55 AM 48.2 °F - 44.6 °F 87% 29.90 in 10.0 mi NW 16.1 mph 21.9 mph N/A   Scattered Clouds
11:15 AM 50.0 °F - 44.6 °F 82% 29.89 in 10.0 mi NW 16.1 mph 20.7 mph N/A   Scattered Clouds
11:35 AM 51.8 °F - 42.8 °F 71% 29.89 in 10.0 mi NW 18.4 mph 24.2 mph N/A   Scattered Clouds
11:55 AM 51.8 °F - 42.8 °F 71% 29.89 in 10.0 mi WNW 15.0 mph 24.2 mph N/A   Scattered Clouds
12:15 PM 51.8 °F - 42.8 °F 71% 29.89 in 10.0 mi NW 16.1 mph 29.9 mph N/A   Scattered Clouds
12:35 PM 51.8 °F - 41.0 °F 67% 29.88 in 10.0 mi NW 13.8 mph 26.5 mph N/A   Scattered Clouds
12:55 PM 51.8 °F - 39.2 °F 62% 29.88 in 10.0 mi WNW 17.3 mph 26.5 mph N/A   Scattered Clouds
1:15 PM 51.8 °F - 39.2 °F 62% 29.88 in 10.0 mi WNW 17.3 mph 26.5 mph N/A   Scattered Clouds
1:35 PM 51.8 °F - 39.2 °F 62% 29.89 in 10.0 mi NW 15.0 mph 24.2 mph N/A   Mostly Cloudy
1:55 PM 51.8 °F - 37.4 °F 58% 29.88 in 10.0 mi NW 13.8 mph 21.9 mph N/A   Mostly Cloudy
2:15 PM 51.8 °F - 37.4 °F 58% 29.88 in 10.0 mi WNW 10.4 mph 25.3 mph N/A   Mostly Cloudy
2:35 PM - - - N/A% 29.89 in - NW 13.8 mph - N/A   Unknown
2:55 PM 50.0 °F - 35.6 °F 58% 29.90 in 10.0 mi NW 15.0 mph 21.9 mph N/A   Unknown
3:15 PM 50.0 °F - 35.6 °F 58% 29.90 in 10.0 mi NW 16.1 mph 24.2 mph N/A   Overcast
3:35 PM 50.0 °F - 35.6 °F 58% 29.91 in 10.0 mi NW 13.8 mph 21.9 mph N/A   Overcast
3:55 PM 50.0 °F - 35.6 °F 58% 29.91 in 10.0 mi NW 12.7 mph 17.3 mph N/A   Overcast
4:15 PM 50.0 °F - 35.6 °F 58% 29.92 in 10.0 mi NW 12.7 mph - N/A   Overcast
4:35 PM 48.2 °F - 37.4 °F 66% 29.93 in 10.0 mi NW 13.8 mph 17.3 mph N/A   Overcast
4:55 PM 48.2 °F - 35.6 °F 62% 29.93 in 10.0 mi NNW 12.7 mph 18.4 mph N/A   Overcast
5:15 PM 48.2 °F - 35.6 °F 62% 29.94 in 10.0 mi NNW 12.7 mph - N/A   Overcast
5:35 PM 48.2 °F - 35.6 °F 62% 29.95 in 10.0 mi NW 13.8 mph 19.6 mph N/A   Overcast
5:55 PM 48.2 °F - 35.6 °F 62% 29.96 in 10.0 mi NNW 15.0 mph 19.6 mph N/A   Overcast
6:15 PM 48.2 °F - 35.6 °F 62% 29.97 in 10.0 mi NW 13.8 mph - N/A   Overcast
6:35 PM 46.4 °F 40.7 °F 35.6 °F 66% 29.97 in 10.0 mi NW 12.7 mph - N/A   Overcast
6:55 PM 46.4 °F 40.7 °F 33.8 °F 62% 29.97 in 10.0 mi NW 12.7 mph - N/A   Overcast
7:15 PM 46.4 °F 40.7 °F 33.8 °F 62% 29.97 in 10.0 mi NW 12.7 mph 17.3 mph N/A   Overcast
7:35 PM 46.4 °F 40.7 °F 33.8 °F 62% 29.97 in 10.0 mi NW 12.7 mph 18.4 mph N/A   Overcast
7:55 PM 46.4 °F 39.5 °F 33.8 °F 62% 29.97 in 10.0 mi NW 17.3 mph 23.0 mph N/A   Overcast
8:15 PM 46.4 °F 40.4 °F 33.8 °F 62% 29.97 in 10.0 mi NW 13.8 mph - N/A   Overcast
8:35 PM 46.4 °F 40.7 °F 33.8 °F 62% 29.97 in 10.0 mi NW 12.7 mph 18.4 mph N/A   Overcast
8:55 PM 46.4 °F 41.1 °F 33.8 °F 62% 29.97 in 10.0 mi NW 11.5 mph - N/A   Overcast
9:15 PM 46.4 °F 41.1 °F 33.8 °F 62% 29.97 in 10.0 mi NW 11.5 mph 17.3 mph N/A   Overcast
9:35 PM 46.4 °F 41.1 °F 33.8 °F 62% 29.97 in 10.0 mi NW 11.5 mph 16.1 mph N/A   Overcast
9:55 PM 46.4 °F 40.7 °F 33.8 °F 62% 29.97 in 10.0 mi WNW 12.7 mph 18.4 mph N/A   Overcast
10:15 PM 46.4 °F 40.7 °F 33.8 °F 62% 29.96 in 10.0 mi NW 12.7 mph 20.7 mph N/A   Overcast
10:35 PM 46.4 °F 40.4 °F 32.0 °F 57% 29.96 in 10.0 mi NW 13.8 mph 19.6 mph N/A   Overcast
10:55 PM 46.4 °F 40.7 °F 30.2 °F 53% 29.96 in 10.0 mi NW 12.7 mph 20.7 mph N/A   Overcast
11:15 PM 46.4 °F 40.7 °F 32.0 °F 57% 29.97 in 10.0 mi WNW 12.7 mph 18.4 mph N/A   Overcast
11:35 PM 44.6 °F 39.2 °F 32.0 °F 61% 29.98 in 10.0 mi NW 10.4 mph 17.3 mph N/A   Overcast
11:55 PM 44.6 °F 39.2 °F 32.0 °F 61% 29.98 in 10.0 mi NW 10.4 mph - N/A   Overcast